Location: Oberwangen
(47.4286°N, 8.9679°E)
Time: 23:37:30
(UTC+00:00)

SL-14 R/B - Pass Details

Date: 20 June 2021
Orbit: 517 x 554 km, 82.4° (Epoch: 23 July)

Event Time Altitude Azimuth Distance (km) Brightness Sun altitude
Exits shadow 20:41:04 10° 173° (S) 1,833 5.5 -10.0°
Reaches altitude 10° 20:41:05 10° 173° (S) 1,830 5.5 -10.0°
Maximum altitude 20:45:01 55° 95° (E) 668 3.5 -10.4°
Drops below altitude 10° 20:48:58 10° 18° (NNE) 1,833 6.5 -10.8°
Sets 20:51:10 0° 14° (NNE) 2,726 7.5 -11.0°
